Weather History for Ionia, MI

Change the Weather History Date:

Wednesday, April 24, 2013

  Actual Average (KGRR) Record (KGRR)
Temperature  
Mean Temperature 40 °F 51 °F  
Max Temperature 47 °F 62 °F 86 °F (1915)
Min Temperature 34 °F 41 °F 26 °F (1971)
Degree Days  
Heating Degree Days 24 14  
Month to date heating degree days 441  
Since 1 July heating degree days 6128  
Cooling Degree Days 0 0  
Month to date cooling degree days 0  
Year to date cooling degree days 1  
Moisture  
Dew Point 32 °F    
Average Humidity 77    
Maximum Humidity 99    
Minimum Humidity 38    
Precipitation  
Precipitation 0.09 in 0.11 in 1.46 in (1957)
Month to date precipitation 2.66  
Year to date precipitation 8.91  
Snow  
Snow 0.00 in 0.10 in 2.40 in (1980)
Month to date snowfall 1.8  
Since 1 July snowfall 74.9  
Snow Depth -    
Sea Level Pressure  
Sea Level Pressure 29.92 in    
Wind  
Wind Speed 10 mph (NW)    
Max Wind Speed 17 mph    
Max Gust Speed 25 mph    
Visibility 9 miles    
Events Rain , Snow    
T = Trace of Precipitation, MM = Missing Value Source: NWS Daily Summary

Daily Weather History Graph

Daily Weather History Graph

Search for Another Location

Airport:

Trip Planner

Search our weather history database for the weather conditions in past years. The results will help you decide how hot, cold, wet, or windy it might be!

Date:

Astronomy

Apr. 24, 2013 Rise Set
Actual Time 6:43 AM EDT 8:33 PM EDT
Civil Twilight 6:13 AM EDT 9:03 PM EDT
Nautical Twilight 5:36 AM EDT 9:40 PM EDT
Astronomical Twilight 4:56 AM EDT 10:20 PM EDT
Moon 7:35 PM EDT (4/24) 5:48 AM EDT (4/24)
Length of Visible Light 14h 50m
Length of Day
13h 49m
Waxing Gibbous, 98% of the Moon is Illuminated
Apr 24
Waxing Gibbous
Apr 25
Full
May 2
Last Quarter
May 9
New
May 18
First Quarter

Hourly Weather History & Observations

Time (EDT) Temp. Windchill Dew Point Humidity Pressure Visibility Wind Dir Wind Speed Gust Speed Precip Events Conditions
12:14 AM 43.3 °F 40.7 °F 42.1 °F 95% 29.85 in 10.0 mi NNW 4.6 mph - N/A Rain Light Rain
12:34 AM 43.0 °F 37.7 °F 41.9 °F 96% 29.84 in 7.0 mi North 9.2 mph - 0.02 in Rain Rain
12:54 AM 42.8 °F 36.6 °F 41.9 °F 97% 29.84 in 10.0 mi North 11.5 mph - 0.05 in Rain Rain
1:14 AM 40.6 °F 32.0 °F 39.4 °F 95% 29.84 in 5.0 mi North 17.3 mph 21.9 mph 0.02 in Rain Light Rain
1:34 AM 38.5 °F 30.7 °F 37.6 °F 97% 29.86 in 7.0 mi North 12.7 mph 16.1 mph 0.02 in Rain Light Rain
1:54 AM 37.4 °F 29.8 °F 36.5 °F 97% 29.85 in 10.0 mi North 11.5 mph - 0.02 in Rain Light Rain
2:14 AM 36.7 °F 29.4 °F 35.8 °F 97% 29.86 in 10.0 mi North 10.4 mph - N/A Rain Rain
2:34 AM 36.5 °F 29.7 °F 35.6 °F 97% 29.84 in 7.0 mi North 9.2 mph - N/A Rain Light Rain
2:54 AM 36.0 °F 28.5 °F 35.2 °F 97% 29.84 in 10.0 mi North 10.4 mph - N/A Rain Light Rain
3:14 AM 35.8 °F 28.8 °F 34.9 °F 97% 29.85 in 7.0 mi North 9.2 mph - N/A Snow Light Snow
3:34 AM 35.6 °F 29.2 °F 34.7 °F 97% 29.85 in 5.0 mi North 8.1 mph - 0.02 in Rain Light Rain
3:54 AM 34.9 °F 28.3 °F 33.8 °F 96% 29.87 in 7.0 mi North 8.1 mph 16.1 mph 0.02 in Snow Light Snow
4:14 AM 34.9 °F 27.7 °F 34.2 °F 97% 29.87 in 7.0 mi NNW 9.2 mph - N/A Snow Light Snow
4:34 AM 34.7 °F 26.9 °F 34.0 °F 97% 29.86 in 7.0 mi North 10.4 mph - N/A Snow Light Snow
4:54 AM 34.0 °F 26.6 °F 33.4 °F 98% 29.87 in 5.0 mi North 9.2 mph - N/A Snow Light Snow
5:14 AM 34.0 °F 28.8 °F 33.6 °F 99% 29.88 in 5.0 mi North 5.8 mph - N/A Snow Light Snow
5:34 AM 34.0 °F 27.2 °F 33.8 °F 99% 29.87 in 7.0 mi North 8.1 mph - N/A Snow Light Snow
6:14 AM 34.0 °F 28.0 °F 33.8 °F 99% 29.88 in 7.0 mi North 6.9 mph - N/A Snow Light Snow
6:34 AM 34.2 °F 28.2 °F 33.8 °F 99% 29.89 in 10.0 mi NNW 6.9 mph - N/A   Overcast
6:54 AM 34.2 °F 27.5 °F 33.4 °F 97% 29.89 in 10.0 mi NNW 8.1 mph - N/A Snow Light Snow
7:14 AM 34.3 °F 29.2 °F 33.8 °F 98% 29.89 in 4.0 mi NNW 5.8 mph - N/A Snow Light Snow
7:34 AM 34.3 °F 30.2 °F 33.8 °F 98% 29.90 in 7.0 mi NNW 4.6 mph - N/A Snow Light Snow
7:54 AM 34.7 °F 29.6 °F 34.0 °F 97% 29.89 in 10.0 mi NNW 5.8 mph - N/A   Overcast
8:14 AM 34.9 °F 30.8 °F 33.6 °F 95% 29.90 in 10.0 mi NNW 4.6 mph - N/A   Overcast
8:34 AM 35.1 °F 28.6 °F 33.8 °F 95% 29.90 in 10.0 mi NNW 8.1 mph - N/A   Overcast
8:54 AM 35.1 °F 29.3 °F 33.6 °F 94% 29.89 in 10.0 mi NNW 6.9 mph - N/A   Overcast
9:14 AM 35.1 °F 29.3 °F 33.1 °F 92% 29.90 in 10.0 mi NNW 6.9 mph - N/A   Overcast
9:34 AM 35.2 °F 28.1 °F 33.1 °F 92% 29.89 in 10.0 mi NNW 9.2 mph - N/A   Overcast
9:54 AM 35.4 °F 28.4 °F 32.9 °F 91% 29.89 in 10.0 mi NNW 9.2 mph - N/A   Overcast
10:14 AM 35.6 °F 29.2 °F 33.1 °F 91% 29.88 in 10.0 mi North 8.1 mph - N/A   Overcast
10:34 AM 35.8 °F 30.1 °F 32.7 °F 89% 29.88 in 10.0 mi NNW 6.9 mph - N/A   Overcast
10:54 AM 36.3 °F 30.8 °F 33.1 °F 88% 29.88 in 10.0 mi NNW 6.9 mph - N/A   Overcast
11:14 AM 36.7 °F 31.2 °F 33.3 °F 87% 29.89 in 10.0 mi NNW 6.9 mph - N/A   Overcast
11:34 AM 37.4 °F 31.4 °F 33.1 °F 84% 29.90 in 10.0 mi NW 8.1 mph - N/A   Overcast
11:54 AM 38.3 °F 30.9 °F 33.3 °F 82% 29.92 in 10.0 mi WNW 11.5 mph - N/A   Overcast
12:14 PM 38.7 °F 32.9 °F 33.1 °F 80% 29.92 in 10.0 mi NW 8.1 mph - N/A   Overcast
12:34 PM 38.5 °F 31.6 °F 32.7 °F 80% 29.91 in 10.0 mi NW 10.4 mph - N/A   Overcast
12:54 PM 39.4 °F 31.8 °F 32.4 °F 76% 29.91 in 10.0 mi WNW 12.7 mph 16.1 mph N/A   Overcast
1:14 PM 39.0 °F 31.0 °F 32.5 °F 78% 29.90 in 10.0 mi WNW 13.8 mph 19.6 mph N/A   Overcast
1:34 PM 39.4 °F 33.2 °F 32.2 °F 75% 29.91 in 10.0 mi NNW 9.2 mph 16.1 mph N/A   Overcast
1:54 PM 39.7 °F 32.7 °F 32.0 °F 74% 29.91 in 10.0 mi NW 11.5 mph 16.1 mph N/A   Overcast
2:14 PM 40.3 °F 33.4 °F 31.8 °F 72% 29.91 in 10.0 mi NW 11.5 mph 18.4 mph N/A   Overcast
2:34 PM 40.6 °F 33.8 °F 30.4 °F 67% 29.92 in 10.0 mi NW 11.5 mph 21.9 mph N/A   Overcast
2:54 PM 41.2 °F 36.0 °F 30.6 °F 66% 29.92 in 10.0 mi NW 8.1 mph - N/A   Overcast
3:14 PM 43.0 °F 36.4 °F 30.4 °F 61% 29.93 in 10.0 mi WNW 12.7 mph 20.7 mph N/A   Overcast
3:34 PM 43.9 °F 37.5 °F 29.8 °F 58% 29.93 in 10.0 mi West 12.7 mph - N/A   Mostly Cloudy
3:54 PM 44.1 °F 37.4 °F 29.7 °F 57% 29.94 in 10.0 mi WNW 13.8 mph 20.7 mph N/A   Mostly Cloudy
4:14 PM 44.8 °F 38.7 °F 29.7 °F 55% 29.94 in 10.0 mi West 12.7 mph 19.6 mph N/A   Mostly Cloudy
4:26 PM 45.5 °F 38.9 °F 28.8 °F 52% 29.94 in 10.0 mi West 15.0 mph - N/A   Mostly Cloudy
4:54 PM 46.4 °F 39.8 °F 26.1 °F 45% 29.95 in 10.0 mi WNW 16.1 mph 20.7 mph N/A   Scattered Clouds
5:13 PM 46.6 °F - 25.9 °F 44% 29.95 in 10.0 mi WNW 16.1 mph 24.2 mph N/A   Scattered Clouds
5:31 PM 47.1 °F - 25.9 °F 44% 29.95 in 10.0 mi WNW 17.3 mph - N/A   Scattered Clouds
5:54 PM 46.9 °F - 26.8 °F 45% 29.96 in 10.0 mi WNW 15.0 mph 20.7 mph N/A   Clear
6:00 PM 46.8 °F - 25.7 °F 44% 29.96 in 10.0 mi NW 11.5 mph 20.7 mph N/A   Clear
6:34 PM 47.1 °F - 22.8 °F 38% 29.98 in 10.0 mi WNW 17.3 mph 21.9 mph N/A   Clear
6:54 PM 46.4 °F 39.5 °F 24.6 °F 42% 29.99 in 10.0 mi West 17.3 mph 25.3 mph N/A   Clear
7:11 PM 45.5 °F 38.9 °F 23.5 °F 42% 29.99 in 10.0 mi WNW 15.0 mph 25.3 mph N/A   Clear
7:34 PM 44.6 °F 38.8 °F 24.8 °F 46% 30.00 in 10.0 mi West 11.5 mph 21.9 mph N/A   Clear
7:52 PM 44.2 °F 37.3 °F 24.4 °F 46% 30.00 in 10.0 mi West 15.0 mph 21.9 mph N/A   Clear
7:57 PM 44.2 °F 38.8 °F 24.3 °F 45% 30.01 in 10.0 mi West 10.4 mph 13.8 mph N/A   Clear
8:34 PM 42.6 °F 36.3 °F 24.6 °F 49% 30.02 in 10.0 mi West 11.5 mph - N/A   Clear
8:54 PM 41.9 °F 36.9 °F 24.4 °F 50% 30.04 in 10.0 mi West 8.1 mph - N/A   Clear
9:14 PM 38.8 °F 32.6 °F 27.5 °F 64% 30.05 in 10.0 mi WSW 9.2 mph - N/A   Clear
9:24 PM 38.7 °F 32.9 °F 27.9 °F 65% 30.06 in 10.0 mi WSW 8.1 mph - N/A   Clear
9:46 PM 37.6 °F 32.3 °F 28.4 °F 69% 30.07 in 10.0 mi WSW 6.9 mph - N/A   Clear
10:50 PM 37.2 °F 31.2 °F 28.0 °F 69% 30.09 in 10.0 mi SW 8.1 mph - N/A   Clear
11:17 PM 37.4 °F 30.8 °F 28.4 °F 70% 30.09 in 10.0 mi SSW 9.2 mph - N/A   Clear
11:38 PM - - - N/A% - 10.0 mi SSW 8.1 mph - N/A   Unknown